GFSNE_500_rhum_000.txt.gz
RH
13 12 10 7 7 6 5 4 4 3 2 1 3 5 8 10 21 38 67 76 87 99 79 87 100 98 99 100 96 98 97 100 98 99 94 98 98 97
13 10 8 8 7 4 2 3 5 7 7 6 6 6 8 10 14 24 62 78 87 100 100 100 99 100 100 99 100 99 83 97 99 99 99 93 99 100
10 9 9 7 5 3 5 6 7 4 2 2 1 1 1 3 10 21 44 75 76 86 100 100 100 97 98 94 93 93 100 98 92 95 86 90 98 98
9 8 7 6 6 7 8 6 3 3 4 5 6 6 5 5 3 4 13 48 78 73 70 80 70 73 74 81 91 93 91 95 98 96 85 95 85 92
8 8 8 9 11 10 6 3 4 6 8 8 8 5 5 5 5 6 4 7 38 73 65 46 29 20 19 16 18 22 39 63 82 94 94 99 86 71
10 9 16 18 12 6 4 6 7 8 9 7 7 6 7 7 8 10 7 6 6 29 65 60 49 40 32 26 23 23 19 15 24 71 93 93 99 94
10 23 24 16 6 5 7 8 6 7 7 8 8 8 9 9 10 16 17 10 7 6 20 51 53 46 38 32 33 36 36 30 20 24 55 94 93 96
23 28 21 9 6 8 8 8 6 7 8 19 17 10 12 13 14 13 17 19 9 9 7 9 20 38 45 46 44 36 17 10 12 13 39 65 100 100
32 25 16 7 9 8 7 8 7 8 27 26 25 12 8 11 14 15 16 16 14 14 8 5 6 5 6 5 3 3 3 5 8 10 30 42 91 100
31 22 10 8 7 7 7 8 8 11 20 25 31 8 7 10 12 13 14 13 12 12 10 10 8 6 6 5 4 4 4 4 6 8 29 59 74 98
29 14 10 8 11 9 8 9 10 11 19 37 10 8 11 10 10 10 24 40 51 85 100 39 15 12 10 8 4 3 2 2 5 8 58 79 72 94
24 12 11 14 11 9 10 10 11 11 26 8 16 14 15 19 18 22 33 86 85 94 100 100 100 91 21 30 12 4 1 2 4 41 82 74 78 82
16 13 16 20 22 31 28 19 13 18 11 17 26 30 28 26 29 31 29 61 84 100 100 100 100 100 93 69 33 13 5 2 23 69 100 92 72 67
14 15 19 24 31 34 27 13 19 13 18 31 32 30 29 28 24 19 21 44 49 68 83 58 59 72 61 54 74 20 10 9 34 70 97 72 91 90
14 19 22 29 33 33 19 24 12 20 34 57 70 83 64 49 31 28 45 46 67 88 100 100 100 99 97 75 44 29 12 8 26 41 70 70 76 81
14 25 29 28 26 26 28 14 25 70 84 85 91 98 94 94 98 100 100 100 100 100 100 100 100 100 100 64 42 27 16 13 20 33 36 31 54 54
18 30 28 27 31 27 16 34 94 95 97 100 100 100 100 98 80 89 98 100 100 100 100 100 100 87 100 96 37 32 33 17 16 17 22 26 39 48
25 29 27 28 18 16 63 100 98 100 100 100 100 98 95 90 100 100 100 100 100 100 100 100 100 100 99 82 48 41 40 30 16 21 39 38 46 97
30 29 26 16 15 87 100 100 100 100 100 100 100 100 100 100 100 100 100 100 100 100 100 100 100 98 83 98 99 95 100 100 100 100 100 78 87 100
28 28 18 13 84 100 100 100 100 100 100 100 100 100 100 100 100 100 100 100 100 100 100 100 100 100 100 100 100 100 100 100 100 100 100 100 100 100
27 24 10 74 96 100 100 100 100 100 100 100 100 100 100 100 100 100 100 100 100 100 100 100 100 100 100 100 100 100 100 100 100 100 100 100 100 100
26 10 60 93 100 100 100 100 100 100 100 100 100 100 100 100 100 100 100 100 100 100 100 100 100 100 100 100 100 100 100 100 100 100 100 100 100 100
10 55 93 100 100 100 100 100 100 100 100 100 100 100 100 100 100 100 100 100 100 100 100 100 100 100 100 100 100 100 100 100 100 100 100 100 100 100

GFSNE_500_rhum_003.txt.gz
RH
29 25 23 22 22 19 14 9 7 6 4 3 3 2 2 4 4 3 2 2 1 1 1 7 23 54 62 76 79 100 100 100 93 100 98 100 98 97
29 27 26 23 18 12 9 8 8 8 6 3 2 4 4 3 3 4 7 7 6 5 4 2 8 53 84 79 70 80 100 100 100 100 99 97 96 94
30 25 19 13 12 10 8 10 8 10 10 5 6 3 3 5 6 8 9 7 6 5 5 5 4 12 84 99 88 90 75 99 100 100 100 100 100 99
21 17 14 12 11 11 12 11 13 12 14 6 3 5 7 7 6 8 6 6 6 6 6 6 4 4 33 99 100 93 98 85 95 99 100 100 100 100
15 12 12 13 13 15 14 18 15 15 7 5 6 6 7 7 7 7 10 8 7 7 8 8 7 3 7 77 100 100 100 98 89 98 96 96 96 97
12 14 15 16 19 20 26 21 18 9 6 6 7 7 8 8 11 14 9 16 9 8 12 12 10 6 4 36 94 86 86 89 84 94 98 96 91 98
15 16 16 21 35 37 28 22 12 7 8 9 7 8 10 10 12 16 15 5 7 13 18 15 18 10 5 7 72 80 68 71 62 72 70 49 68 62
16 18 26 48 45 33 30 13 9 11 9 8 8 10 11 11 22 9 6 8 8 24 21 20 28 15 8 3 35 74 50 40 25 21 16 15 17 19
20 32 51 54 38 38 17 11 14 17 20 28 20 14 11 25 10 9 10 10 10 15 12 13 15 13 9 5 11 59 58 36 25 25 20 18 24 31
47 63 63 46 45 29 11 13 16 24 31 34 18 15 23 13 14 16 11 10 26 38 31 76 88 66 16 5 4 16 46 51 40 29 24 24 26 28
66 66 57 46 46 14 12 20 23 30 36 24 18 22 14 20 23 14 13 13 53 79 100 100 100 87 50 24 7 4 3 4 4 3 3 4 9 15
61 64 55 53 30 10 23 26 25 24 22 22 19 17 25 25 27 16 8 14 75 99 100 100 100 100 100 73 28 18 10 5 3 2 2 0 0 5
58 50 47 42 11 16 29 26 28 25 20 13 23 33 49 69 59 41 24 10 60 73 96 88 100 100 100 98 100 86 14 5 2 0 0 0 3 8
51 45 42 19 9 28 26 26 24 15 18 49 84 82 88 96 85 77 79 56 30 63 68 68 86 87 98 96 94 100 26 16 8 1 0 0 6 20
49 41 21 8 22 27 24 15 14 42 90 100 100 100 100 100 97 91 100 99 100 100 99 95 81 94 67 77 50 100 64 27 8 9 14 46 67 83
36 17 8 17 28 26 14 17 68 100 99 99 98 100 89 99 85 98 100 100 100 100 100 100 100 100 100 100 42 90 100 32 20 25 50 96 97 92
11 8 14 26 28 16 18 81 98 99 100 100 100 100 100 100 100 100 100 100 100 100 100 100 100 77 86 99 54 68 79 49 31 32 92 93 85 76
9 13 24 28 17 15 85 100 98 99 100 100 100 100 100 100 100 100 100 100 100 100 100 100 100 94 100 100 71 82 73 51 30 26 64 86 90 82
15 24 28 21 10 76 100 100 100 100 100 100 100 100 100 100 100 100 100 100 100 100 100 100 100 100 100 93 82 100 100 99 46 26 26 34 45 100
26 26 25 7 66 100 100 100 100 100 100 100 100 100 100 100 100 100 100 100 100 100 100 100 100 100 100 100 97 100 100 100 100 70 35 83 100 56
26 24 6 59 100 100 100 100 100 100 100 100 100 100 100 100 100 100 100 100 100 100 100 100 100 100 100 100 100 100 100 100 100 100 100 100 100 85
21 4 65 100 100 100 100 100 100 100 100 100 100 100 100 100 100 100 99 99 100 100 100 100 100 100 100 100 100 100 100 100 100 100 100 100 100 100
4 80 100 99 100 100 100 100 100 100 100 100 100 100 100 100 100 100 100 100 100 100 100 100 100 100 100 100 100 100 100 100 100 100 100 100 100 100

GFSNE_500_rhum_006.txt.gz
RH
40 39 37 33 27 18 13 9 7 6 4 4 4 4 5 6 5 5 6 6 4 3 4 4 5 5 5 4 2 1 3 6 6 63 81 98 98 98
38 32 22 13 11 7 6 6 8 9 6 5 5 6 5 4 8 9 5 4 5 5 6 6 6 7 8 8 7 5 1 4 6 7 56 81 100 97
15 10 9 6 6 7 8 9 11 12 12 8 8 6 8 13 9 5 5 5 6 7 8 7 6 6 6 6 5 5 5 3 8 7 11 78 99 100
9 8 8 8 9 10 10 11 12 17 21 14 11 16 17 7 6 7 8 7 7 8 8 8 10 10 10 6 6 6 6 5 7 12 20 34 68 100
10 9 10 10 10 10 11 15 24 26 29 26 20 20 8 12 11 9 8 8 10 10 10 12 9 8 10 12 10 7 7 6 5 18 21 67 77 59
11 11 11 11 11 12 18 25 28 33 29 31 25 9 11 17 20 23 13 13 11 13 10 6 7 7 6 6 7 8 8 7 5 23 48 77 100 80
12 12 10 9 12 19 34 41 46 39 36 26 10 14 20 22 28 27 12 11 11 13 13 10 10 9 12 14 15 14 11 9 5 18 50 100 100 100
11 8 7 8 19 39 50 53 45 41 34 11 16 25 24 24 28 16 14 10 16 28 12 10 13 13 14 17 21 24 18 11 5 9 48 89 100 100
7 6 8 21 40 47 45 41 37 32 15 15 27 27 27 21 16 13 18 24 18 17 11 18 28 37 50 65 57 29 17 9 5 10 50 87 96 99
7 13 26 37 44 43 39 34 27 18 12 29 31 29 26 14 14 19 30 29 16 15 21 71 92 100 100 100 100 84 13 6 4 13 62 76 79 85
17 33 43 43 38 39 36 29 17 9 28 30 26 20 14 26 41 39 44 25 18 21 53 81 100 100 100 100 100 80 28 5 2 17 67 68 60 70
31 38 40 38 40 38 31 14 7 25 25 16 21 47 67 79 83 79 71 35 13 23 47 73 98 95 100 100 100 100 58 9 3 19 60 59 40 25
34 33 34 37 34 22 10 8 26 23 19 66 97 99 100 96 87 94 99 98 51 23 35 52 93 100 86 95 100 100 87 23 8 5 21 44 46 31
33 32 30 20 11 8 10 26 24 30 92 100 100 100 95 97 92 96 100 100 100 100 88 68 83 89 100 96 82 100 100 16 10 6 4 3 3 4
22 14 11 10 10 15 28 23 35 93 93 99 100 100 96 95 100 100 100 99 97 100 100 100 100 91 82 69 74 100 91 85 80 92 5 1 1 1
10 13 13 13 20 28 22 34 92 90 93 99 100 100 100 100 100 100 100 100 100 100 100 100 100 99 100 95 82 100 100 99 100 88 4 2 4 5
17 16 16 22 29 21 49 100 95 100 100 100 100 100 100 100 100 100 100 100 100 100 100 100 71 84 90 91 58 100 99 37 50 32 8 24 55 75
18 18 23 27 16 67 100 100 100 100 100 100 100 100 100 100 100 100 99 100 100 100 100 100 92 99 100 40 46 100 78 49 60 86 94 90 92 100
19 23 25 12 84 98 100 100 100 100 100 100 100 100 100 100 100 100 100 100 100 100 100 95 100 100 83 68 73 77 45 47 100 100 100 100 100 100
25 21 16 94 100 100 100 100 99 99 100 100 100 100 100 100 100 100 100 100 100 100 100 92 100 84 80 94 94 81 41 41 76 100 100 98 100 100
12 35 98 100 100 100 100 99 100 100 100 100 100 100 100 100 100 99 100 99 99 100 100 100 95 100 99 97 100 100 100 86 54 82 92 100 100 100
76 99 99 100 100 99 98 99 99 99 92 77 82 96 100 100 100 98 99 100 99 98 100 100 100 100 100 100 99 99 100 100 68 36 68 97 100 100
98 100 100 100 99 99 99 70 38 28 29 31 34 31 23 34 61 63 54 54 75 99 100 98 100 100 100 100 100 100 98 93 94 93 96 89 73 77

GFSNE_500_rhum_009.txt.gz
RH
38 27 16 8 7 7 7 7 7 6 6 5 5 6 6 5 4 3 3 3 4 6 9 8 7 6 5 5 4 4 3 3 3 3 4 4 4 4
12 10 7 8 8 8 8 8 7 7 6 6 5 5 4 4 4 6 9 13 17 14 8 7 7 6 6 5 5 5 6 5 5 4 4 3 4 5
8 9 12 10 8 8 8 7 7 7 7 5 5 4 4 5 10 18 24 22 12 9 13 17 15 8 7 7 7 8 7 6 6 6 6 5 2 3
13 15 12 9 9 8 8 7 6 6 6 6 5 8 16 24 25 25 19 8 14 19 20 22 26 22 13 10 10 9 8 6 6 6 8 8 6 2
14 13 10 10 9 9 8 6 5 6 11 18 18 24 24 26 22 16 6 18 22 23 24 30 26 14 14 12 11 9 7 7 6 6 6 6 7 6
12 11 10 10 12 9 5 4 8 16 25 29 29 28 25 21 11 7 16 22 26 21 17 18 16 14 12 10 10 9 8 7 6 7 8 7 6 6
12 12 14 15 10 5 6 11 22 30 31 31 30 26 20 8 10 21 16 17 17 14 12 21 18 18 17 11 8 8 9 10 8 7 7 11 7 6
13 16 18 12 5 8 20 27 34 35 35 36 32 18 7 18 19 11 11 15 32 50 20 29 12 15 13 19 17 20 16 13 14 15 11 6 8 8
21 22 13 6 12 20 25 32 34 37 42 29 12 8 21 17 13 21 35 48 64 60 23 15 12 14 28 84 90 95 88 71 73 34 19 12 8 6
26 14 6 12 22 27 28 27 28 24 13 8 14 24 17 35 65 60 55 65 90 85 23 9 20 47 78 99 100 98 91 100 100 84 16 10 7 6
14 6 15 18 16 11 11 9 8 8 8 26 26 30 85 85 77 75 78 84 100 100 46 16 44 83 85 100 99 99 98 100 100 42 8 8 8 6
7 16 15 10 11 12 11 9 9 16 28 27 70 100 99 97 98 92 81 82 91 99 70 37 47 70 99 100 95 99 100 98 88 30 6 4 4 5
14 12 11 14 16 16 14 15 27 25 47 100 100 100 100 100 100 100 89 96 99 100 95 80 53 63 79 94 97 99 100 59 70 15 4 4 6 25
11 12 14 16 16 16 22 26 25 84 100 100 99 99 100 100 100 99 100 100 100 100 100 96 91 86 95 99 93 91 95 52 35 18 6 13 37 68
11 14 15 16 17 25 23 33 99 100 100 100 100 100 100 100 100 100 100 98 98 100 100 100 100 100 100 90 76 100 100 95 94 94 20 7 28 50
14 15 15 16 22 18 66 98 100 100 100 100 100 100 100 100 100 100 100 100 100 100 100 98 95 98 100 86 91 100 100 100 100 100 31 3 3 6
16 17 18 19 17 80 100 98 100 100 100 100 100 100 100 100 100 100 100 100 100 100 100 98 100 97 97 82 99 98 90 94 100 21 8 14 13 6
22 21 14 26 97 100 100 100 100 100 100 100 100 100 100 100 100 100 100 100 100 100 100 100 100 92 34 90 99 66 64 100 98 16 21 95 47 33
15 11 64 100 98 100 100 100 100 100 99 98 98 100 100 100 100 100 100 100 100 100 100 100 80 63 43 94 88 61 100 100 100 100 69 91 62 27
16 94 100 98 100 100 100 100 99 100 97 96 96 93 96 100 100 100 100 100 100 100 100 100 97 77 75 78 58 75 95 96 100 100 100 100 95 77
98 99 100 100 100 100 98 88 72 51 36 30 30 48 82 98 97 96 97 98 98 100 100 100 100 100 95 99 83 59 98 92 88 100 100 100 100 98
97 100 100 100 95 62 35 28 25 23 21 20 22 30 27 24 46 61 64 83 97 97 100 100 100 99 100 85 99 99 73 98 98 88 96 100 100 100
100 100 91 52 36 37 40 38 34 29 26 20 24 32 36 33 33 34 33 30 26 83 98 100 100 100 98 100 100 98 95 90 90 95 94 94 97 100

GFSNE_500_rhum_012.txt.gz
RH
44 42 36 24 13 9 11 11 12 12 11 11 10 8 7 7 7 6 4 3 4 5 6 6 5 6 7 6 5 6 6 5 5 5 4 4 4 3
43 37 26 18 13 15 17 18 16 13 12 9 8 7 6 6 6 4 4 9 12 17 20 22 21 17 16 14 10 7 7 6 6 5 5 5 5 5
36 24 19 18 22 20 13 12 12 10 8 7 7 7 5 3 3 5 11 18 23 26 26 22 16 11 8 10 11 13 12 12 11 7 6 6 5 4
25 24 26 19 11 11 12 10 9 9 10 9 6 4 5 8 12 17 24 27 25 21 13 7 11 19 19 19 18 14 11 13 16 14 7 7 6 6
28 19 12 12 12 12 11 10 10 12 8 4 4 8 12 14 20 22 24 18 13 7 17 19 13 10 14 16 10 9 12 14 14 12 12 9 9 8
14 14 13 13 12 10 11 12 12 6 5 12 16 17 18 18 21 19 11 6 14 19 12 11 10 11 11 10 11 12 12 13 13 11 9 9 10 10
14 12 12 11 11 14 15 9 4 10 13 12 10 9 10 13 13 9 6 16 21 40 31 60 25 23 17 13 6 7 8 10 10 9 8 8 8 7
14 15 13 14 17 12 4 7 13 11 11 13 12 10 9 9 8 14 22 56 83 100 71 98 48 46 30 10 9 14 33 50 52 62 43 11 9 8
17 15 16 17 7 4 9 10 10 14 18 15 11 10 10 20 24 77 85 87 92 100 54 46 79 73 24 15 24 59 70 94 97 81 98 99 53 12
16 20 14 6 4 10 8 9 12 14 15 18 25 28 29 69 86 84 87 78 84 87 40 58 66 34 22 35 53 76 98 100 100 100 88 100 89 37
21 12 4 7 9 8 10 11 12 20 29 29 35 78 95 99 97 88 84 82 91 100 75 83 95 62 38 60 62 80 100 100 100 100 99 84 90 43
13 4 10 8 8 11 11 13 20 23 40 91 100 100 100 100 100 94 90 94 100 100 95 100 100 78 56 65 65 77 100 100 100 62 27 13 11 9
5 9 7 7 12 13 12 17 24 80 94 92 100 100 100 100 100 99 98 96 98 100 98 97 100 100 92 83 88 88 100 82 79 93 32 14 10 9
9 7 8 14 14 14 16 33 96 96 95 99 99 100 100 100 100 100 100 97 87 90 100 100 100 96 100 100 100 100 99 99 100 100 82 19 12 7
6 8 17 18 17 16 51 90 92 94 98 98 100 100 100 100 100 100 100 100 98 98 100 100 100 89 100 98 82 83 100 100 100 100 86 28 36 32
7 17 16 10 17 81 86 89 93 97 98 100 100 99 100 100 100 100 100 100 100 100 100 100 100 100 85 93 92 100 93 97 96 78 21 20 35 68
15 16 9 33 95 95 90 93 94 94 98 99 100 100 100 100 100 100 100 100 100 100 100 100 62 83 100 100 77 87 100 92 38 56 40 10 17 50
15 16 78 90 89 96 98 98 98 98 98 100 100 100 100 100 100 100 100 100 100 100 100 92 42 76 80 55 68 99 90 90 100 100 95 60 59 21
17 90 90 90 96 97 99 98 96 87 74 60 59 65 94 95 97 99 100 100 100 100 100 99 61 78 64 88 100 100 100 85 100 100 89 64 97 42
80 96 93 97 98 91 65 38 27 24 22 20 21 23 22 48 89 94 96 100 100 100 100 100 100 96 57 88 100 100 100 100 98 100 100 92 100 85
94 91 93 84 47 33 35 35 33 30 26 21 21 26 30 24 25 47 63 89 100 100 100 100 100 100 64 80 95 100 100 100 100 91 100 100 100 73
89 72 40 32 40 45 45 48 50 50 45 32 25 27 40 35 33 35 31 28 74 100 100 100 100 100 100 68 97 100 98 100 100 100 95 100 100 98
42 33 37 42 45 47 51 57 63 64 60 47 36 29 43 48 49 49 36 29 28 50 100 100 100 100 100 100 79 99 92 95 100 100 100 100 100 100

GFSNE_500_rhum_015.txt.gz
RH
60 69 68 56 45 33 27 28 26 18 16 17 14 10 9 8 8 8 7 7 6 5 4 3 3 4 5 5 6 7 7 8 7 6 5 4 3 3
71 73 57 42 30 30 31 16 14 13 15 12 9 9 9 9 9 8 6 4 4 4 6 8 11 12 14 14 14 14 14 13 12 12 13 12 9 8
78 56 39 32 34 28 17 15 14 13 10 9 9 9 9 7 5 3 3 5 7 11 15 19 21 21 19 17 12 9 6 6 6 6 6 7 8 8
53 37 36 36 26 20 16 13 11 10 10 9 9 6 4 3 4 5 6 7 8 9 11 17 21 20 14 6 6 10 11 11 11 11 13 16 20 20
38 38 34 24 18 16 13 12 11 10 9 6 4 4 4 5 6 6 8 10 10 10 10 9 10 7 12 10 9 9 10 10 10 10 11 13 12 12
38 29 21 18 15 14 14 14 12 9 6 5 6 5 8 7 7 8 7 9 9 13 16 23 23 29 26 19 25 30 16 10 10 8 10 11 10 9
24 22 18 16 18 17 16 13 8 4 6 6 8 8 8 13 20 24 27 34 50 86 82 99 72 64 60 47 46 39 17 10 6 6 6 7 8 9
22 19 18 20 20 17 10 5 5 6 6 11 9 14 17 38 72 87 96 100 100 100 68 86 69 58 68 68 73 37 19 10 23 53 71 67 71 58
21 22 22 21 16 9 4 6 6 8 13 11 13 28 64 82 89 98 100 100 100 99 62 95 87 83 76 87 64 36 25 49 66 76 78 99 100 98
25 24 21 14 7 4 6 6 10 12 12 14 46 71 80 81 87 98 94 100 100 97 81 100 96 100 100 100 58 42 58 78 95 89 87 89 100 99
24 20 14 7 5 6 7 11 12 13 20 67 78 82 90 93 92 93 94 95 100 99 87 97 97 89 100 99 71 56 62 79 76 100 99 100 76 46
21 12 5 6 7 8 12 12 17 52 84 92 95 98 96 98 92 89 88 87 93 100 96 96 96 83 99 88 80 70 83 87 100 96 100 81 66 39
12 5 7 7 8 12 9 36 80 84 89 91 95 99 98 98 100 97 97 89 85 100 89 90 96 95 91 100 98 87 100 89 97 100 100 100 100 96
5 7 8 8 11 8 45 85 90 90 92 96 94 96 100 100 100 100 96 99 94 99 100 97 85 92 100 94 95 87 85 98 100 98 100 99 74 100
8 9 10 11 11 59 80 84 85 88 93 96 100 100 98 94 100 100 100 100 99 98 100 99 64 78 88 86 86 84 93 100 93 76 61 44 44 72
10 10 13 27 76 74 77 83 85 88 90 94 97 95 94 96 100 100 100 100 100 96 85 55 92 92 95 83 98 100 92 100 100 94 20 42 60 12
9 13 26 83 83 84 84 80 84 84 76 69 61 57 70 89 92 100 100 100 94 98 73 48 87 61 70 83 99 97 100 99 90 100 95 37 93 28
13 22 82 84 88 89 87 79 50 31 23 19 17 16 19 22 64 96 100 100 97 98 84 59 88 71 92 100 100 100 100 78 86 100 88 34 82 100
21 82 86 90 81 62 37 32 32 32 28 24 18 17 19 25 24 50 87 99 97 98 97 84 78 75 99 97 98 100 100 96 93 100 100 91 47 90
80 88 80 46 35 34 40 44 48 51 51 44 34 23 23 31 30 28 41 50 97 100 99 97 84 58 96 100 90 100 100 100 95 100 100 81 38 71
87 57 34 35 38 39 37 42 48 54 56 55 44 33 27 38 38 36 31 32 41 100 99 100 97 71 91 100 97 100 100 100 100 100 97 48 56 60
34 32 36 34 30 36 47 58 64 70 74 70 51 37 35 45 50 46 38 32 31 60 100 99 100 85 82 99 99 95 95 100 100 100 95 46 52 58
37 39 22 25 34 36 37 45 48 53 72 70 62 52 41 38 36 40 44 34 29 27 84 100 100 95 82 77 99 94 97 99 100 100 100 100 48 46

GFSNE_500_rhum_018.txt.gz
RH
76 82 56 64 70 73 65 49 42 37 30 28 24 21 20 20 19 17 16 16 15 13 10 6 4 3 4 4 4 4 4 4 4 4 3 3 4 3
75 66 68 76 76 59 45 44 44 34 28 25 24 24 22 19 18 16 14 10 6 4 4 5 5 5 4 5 5 6 7 9 10 11 11 11 11 10
66 75 83 74 56 47 49 40 27 24 23 22 17 14 10 10 10 7 5 4 5 6 6 5 4 4 5 6 8 8 8 8 10 12 14 15 15 14
83 85 70 54 52 47 29 26 24 19 14 10 7 7 7 6 4 5 5 7 11 18 18 13 10 7 7 8 8 8 8 8 8 9 7 7 8 8
82 65 55 54 32 28 26 19 12 12 11 10 6 4 4 5 5 7 11 32 50 64 54 63 65 50 36 25 18 17 16 15 15 20 18 12 9 8
60 60 42 31 29 25 18 12 11 11 10 5 4 5 5 6 8 28 57 68 71 68 56 72 67 66 70 66 62 59 48 42 46 42 31 14 6 4
55 35 32 29 23 17 12 10 11 8 4 5 6 6 7 17 55 69 75 77 98 63 67 96 70 83 80 64 59 57 59 58 56 49 30 12 8 6
36 33 31 26 20 14 11 8 6 6 7 7 6 9 43 57 67 74 81 90 91 92 79 100 77 89 82 93 90 85 85 69 44 29 18 11 14 28
34 28 23 19 16 12 9 5 7 8 8 8 31 57 59 66 77 84 88 94 90 80 68 100 89 98 95 100 97 86 97 68 38 39 56 84 88 86
30 25 19 15 14 9 5 6 7 9 15 57 64 64 69 74 75 75 77 89 99 85 62 95 82 87 94 76 80 94 99 58 54 69 89 86 80 86
26 19 15 13 9 4 6 7 8 19 70 76 68 72 80 84 82 77 80 81 90 100 83 99 95 97 99 95 91 100 75 66 76 80 91 98 98 99
19 16 15 8 5 8 8 9 24 72 77 82 87 91 91 93 86 78 79 80 76 98 100 100 81 30 87 93 100 100 88 84 81 86 95 100 100 100
17 15 8 6 9 9 12 45 68 70 75 81 88 93 92 89 91 89 86 81 74 100 90 52 37 64 78 82 91 84 77 86 95 99 100 100 100 100
15 7 6 10 9 12 57 74 71 77 80 84 85 85 86 88 95 97 94 95 79 91 80 27 55 65 71 88 98 98 95 89 97 100 100 80 63 53
6 7 11 10 12 61 72 74 80 84 79 74 64 45 40 42 52 82 92 93 87 92 74 33 46 50 66 76 93 91 98 100 100 98 92 26 45 78
6 12 11 13 62 71 75 76 71 59 38 24 21 17 15 15 16 17 68 99 99 96 80 45 45 71 85 88 92 100 100 100 100 100 87 53 91 100
11 11 16 72 81 80 57 32 28 29 30 31 31 27 21 17 16 18 20 76 98 100 92 53 49 76 88 86 99 100 100 100 95 100 72 78 66 15
12 14 73 82 60 34 33 37 38 40 38 38 39 39 34 20 21 24 22 34 79 97 96 80 50 76 85 94 100 100 95 100 100 100 100 84 59 8
12 66 79 38 33 35 33 31 35 40 46 45 46 50 45 29 25 30 31 30 36 94 98 99 57 63 84 82 95 97 98 100 96 100 45 92 54 32
52 71 34 35 28 24 29 35 42 50 57 66 71 60 44 32 35 42 42 38 34 66 100 100 89 48 85 92 100 96 91 100 94 100 88 76 81 98
67 35 34 23 26 26 28 31 33 36 43 52 59 54 47 45 40 39 38 33 31 32 97 100 94 52 80 87 98 100 98 96 97 100 66 76 91 78
36 33 20 26 26 29 31 32 37 47 43 41 43 43 42 52 55 54 49 40 30 28 63 100 94 66 72 91 100 100 93 100 100 100 66 92 100 86
38 18 19 26 28 31 36 44 54 62 72 85 85 67 67 79 73 62 52 43 31 28 36 100 98 69 73 74 99 100 100 100 96 59 95 98 98 100

GFSNE_500_rhum_021.txt.gz
RH
79 81 81 72 64 65 64 66 62 45 36 33 26 18 13 10 9 8 8 7 6 5 4 4 3 3 3 3 3 3 3 3 3 3 3 3 3 3
76 73 59 62 68 72 68 63 54 39 27 17 11 10 9 8 8 7 6 4 3 3 3 3 4 4 4 4 7 9 8 5 4 4 3 4 5 5
52 55 66 73 76 69 60 47 36 29 15 10 10 8 7 7 6 4 3 3 4 5 5 6 9 18 28 34 45 51 52 31 9 6 6 6 7 9
62 71 80 74 69 57 43 37 27 21 16 12 10 9 6 4 3 4 4 6 7 15 37 46 43 50 55 59 50 41 45 52 39 15 8 9 12 12
74 79 72 63 51 43 36 29 23 19 14 12 8 6 3 4 4 5 14 44 55 55 58 57 63 60 68 57 55 56 51 44 52 63 60 26 12 11
76 69 57 48 43 34 27 20 14 13 12 10 6 3 5 5 19 42 47 60 68 66 72 81 72 70 61 53 59 68 72 68 53 50 57 60 57 47
64 53 51 41 34 26 17 14 14 13 9 5 3 6 6 36 52 54 56 70 82 61 69 94 76 82 78 75 67 66 74 80 81 71 74 64 63 65
53 53 40 34 24 19 17 14 12 8 4 5 6 5 41 53 53 59 69 74 83 82 66 100 77 91 72 73 68 78 81 89 98 100 99 65 43 35
52 39 29 22 20 17 12 10 6 5 7 7 6 50 58 60 65 75 83 80 80 79 66 94 72 88 56 44 21 25 88 75 89 93 91 50 37 36
36 26 23 18 15 12 10 4 5 8 8 8 58 63 64 63 66 69 73 83 86 84 61 80 68 36 14 23 41 75 100 96 96 76 61 59 68 73
27 23 16 14 13 8 3 4 8 9 29 65 63 58 62 66 65 70 75 77 80 92 75 83 54 42 30 56 94 100 100 99 90 85 87 83 73 83
20 18 16 13 6 3 4 8 9 41 74 76 83 77 71 69 64 59 59 67 72 94 85 91 30 15 62 58 83 94 85 80 84 92 100 100 98 88
17 15 13 5 3 6 9 11 52 73 79 82 85 80 76 58 41 27 27 32 53 84 77 84 27 23 54 74 92 92 89 90 100 98 97 100 96 92
15 12 5 3 8 10 15 66 76 77 73 64 52 35 25 22 19 16 14 14 14 56 94 87 31 38 64 92 93 100 97 99 95 100 100 100 88 57
12 4 4 8 10 17 72 73 53 33 29 30 31 32 31 29 26 22 15 15 14 25 87 91 45 49 62 57 89 81 67 99 100 100 100 90 73 98
4 5 8 10 17 71 55 31 31 32 31 29 29 29 28 31 33 29 20 19 23 38 74 100 78 44 74 86 95 87 93 98 100 100 100 98 100 96
5 7 10 22 74 41 34 27 24 26 32 42 46 53 58 49 46 36 23 23 24 37 81 97 92 39 69 85 100 96 98 100 100 84 91 100 83 32
7 10 32 57 34 28 25 27 28 30 33 39 50 63 65 58 52 39 30 29 31 33 54 100 100 61 67 90 99 100 100 100 100 100 100 100 88 39
9 42 44 33 23 25 27 33 34 40 42 36 43 54 57 49 44 40 40 40 38 31 38 99 98 90 77 100 100 100 100 100 98 90 100 98 76 56
42 39 33 19 23 24 28 32 36 48 58 67 50 42 41 45 53 52 44 42 37 30 30 89 100 96 72 100 100 89 100 100 91 91 100 92 89 98
38 33 18 17 21 24 27 29 34 40 45 66 84 95 78 70 76 66 54 41 31 27 27 89 100 83 73 99 91 92 100 97 84 98 100 96 100 89
32 18 17 18 19 20 22 25 30 41 59 82 96 99 93 78 81 75 57 56 47 28 26 93 100 78 76 99 100 96 85 95 100 100 100 86 98 96
19 20 22 28 28 28 40 49 52 53 57 71 77 76 77 83 81 68 61 52 41 35 29 97 100 90 71 100 98 100 72 98 100 98 100 81 88 100

GFSNE_500_rhum_024.txt.gz
RH
32 43 61 65 67 57 43 42 36 38 41 40 37 35 30 24 14 9 8 8 6 5 4 4 3 2 2 3 3 3 3 3 3 3 3 3 3 3
63 70 70 69 46 43 43 57 50 39 31 38 34 24 14 10 8 6 6 5 5 4 2 2 3 4 12 22 28 30 33 35 28 19 13 10 8 6
73 73 61 46 49 58 58 45 42 42 39 30 20 13 9 8 7 7 6 4 2 3 4 12 25 27 38 39 40 40 41 46 51 49 42 29 19 18
73 58 53 56 69 53 46 47 46 37 24 15 11 8 7 9 7 5 2 4 4 17 43 39 37 54 53 60 57 53 55 57 58 60 58 55 44 31
62 59 68 67 52 50 52 47 31 20 16 10 8 8 8 7 4 3 4 7 40 42 43 46 60 59 57 57 52 56 58 64 63 64 68 67 68 51
64 73 61 52 53 53 45 29 20 13 11 10 9 8 7 3 4 4 18 53 50 48 59 63 61 59 60 48 53 54 45 44 52 58 51 61 73 62
72 58 55 57 55 36 23 16 13 13 13 11 9 6 3 5 5 46 57 60 83 57 63 81 66 68 63 65 66 46 14 8 10 9 28 52 75 81
59 62 60 47 26 20 17 16 14 13 11 8 4 3 6 6 50 59 62 62 75 92 60 88 70 79 68 64 18 11 17 21 33 40 78 76 86 96
66 58 33 25 20 17 14 13 14 10 5 3 6 8 8 46 54 55 69 70 76 80 58 97 76 83 66 30 15 23 44 88 100 100 98 97 98 97
45 30 26 20 17 14 13 12 8 4 4 8 12 37 61 57 58 58 60 62 70 77 52 80 73 90 70 16 31 50 63 68 67 62 58 60 54 53
33 25 20 17 16 12 11 7 4 6 9 22 68 67 62 62 59 56 60 53 40 21 39 59 73 85 52 25 54 70 83 77 80 86 100 99 97 96
22 20 19 15 12 10 5 4 6 9 39 80 76 69 50 36 30 34 33 24 20 16 17 21 80 80 45 42 58 74 93 87 94 95 73 77 99 100
21 20 15 12 9 4 4 6 11 51 69 46 31 29 30 29 28 26 24 20 20 18 13 14 83 97 45 51 100 90 94 97 97 100 98 97 91 93
18 16 13 8 4 5 6 22 58 40 29 28 25 25 26 28 27 27 30 31 28 22 15 13 62 89 63 50 65 90 100 100 99 95 97 100 100 94
16 12 6 4 5 8 39 46 27 23 21 23 24 27 33 37 41 45 54 39 39 26 18 14 42 95 77 43 56 77 71 96 88 88 100 99 96 100
11 5 4 5 10 44 30 21 19 25 37 44 41 31 35 48 53 53 62 61 47 41 27 17 28 90 98 50 72 81 92 83 90 100 100 100 99 92
5 4 5 16 43 26 19 17 22 32 36 42 50 54 39 45 48 44 46 46 36 36 46 42 30 77 92 52 84 94 86 100 100 100 100 90 100 100
4 6 19 38 24 17 19 22 24 29 34 40 46 54 74 53 42 53 55 48 39 38 35 35 35 91 87 59 56 90 99 100 100 100 92 100 100 100
5 22 34 23 16 17 19 22 26 30 33 36 46 61 85 93 79 67 74 61 53 38 30 29 37 100 100 95 94 90 100 100 99 96 100 100 84 100
19 33 21 16 18 21 22 24 37 47 49 52 65 76 81 78 80 76 74 60 55 45 31 26 75 100 76 98 100 100 97 98 95 98 100 92 87 95
31 19 18 22 32 34 38 42 43 46 46 46 56 72 76 81 85 79 70 54 51 42 30 29 100 93 79 100 100 93 96 99 97 96 100 99 97 100
20 30 36 41 38 36 34 39 45 44 48 51 62 72 76 73 72 67 52 42 35 33 30 89 99 91 88 99 100 87 99 100 92 99 100 100 99 100
41 43 43 42 38 34 40 52 52 45 48 54 65 74 75 78 68 51 46 42 34 33 37 100 100 92 100 98 98 70 97 98 100 100 100 100 100 100

GFSNE_500_rhum_027.txt.gz
RH
55 40 29 36 56 64 64 64 60 51 39 51 46 41 36 36 34 24 13 10 8 7 6 6 5 4 4 3 2 2 4 8 12 10 6 4 3 3
40 35 58 70 73 68 68 61 46 45 43 43 39 40 39 30 18 12 8 8 7 7 6 6 4 3 2 3 8 27 30 29 38 42 38 30 26 20
46 79 84 78 74 68 51 53 58 47 41 41 42 30 16 12 10 9 9 8 8 7 5 3 3 3 9 24 29 39 41 46 50 52 54 54 52 52
91 90 83 75 60 52 66 54 48 46 45 38 22 15 13 12 10 9 8 7 5 3 4 5 15 35 36 37 49 50 56 57 56 48 46 46 45 42
94 87 72 56 67 65 54 50 50 42 26 19 15 13 9 7 6 6 6 3 4 6 17 54 44 50 48 58 56 60 61 56 57 53 50 44 37 44
89 65 66 74 62 56 53 46 31 23 18 15 10 6 6 6 5 3 3 5 7 45 55 62 60 60 68 63 63 60 59 54 42 19 10 14 17 15
65 74 73 63 58 51 35 26 21 17 13 8 6 6 6 4 3 4 6 13 51 69 50 75 59 73 73 63 60 67 65 49 16 23 17 26 49 64
80 72 64 58 41 28 22 18 14 9 8 8 7 4 3 4 5 15 47 57 58 100 62 68 69 80 75 71 66 75 69 20 29 29 43 50 55 83
70 62 49 32 26 21 18 10 8 9 10 6 3 3 5 13 45 53 60 62 74 73 58 56 58 51 59 71 67 79 45 32 42 56 67 72 79 81
59 39 29 24 23 16 10 7 8 8 5 3 4 9 36 56 49 42 37 28 24 29 44 46 32 23 22 30 51 77 32 41 50 66 69 76 100 97
36 28 24 20 14 11 7 7 7 4 4 6 28 48 36 24 23 20 22 21 24 35 30 19 20 19 16 21 33 70 34 47 59 74 74 75 87 91
26 23 19 13 9 8 7 6 4 4 14 42 32 22 19 17 17 18 18 18 18 19 26 23 28 19 17 44 52 69 38 49 64 82 80 84 86 85
23 17 10 8 8 7 6 3 4 25 34 18 18 22 36 40 35 24 26 27 29 35 32 17 27 26 16 18 99 77 47 58 75 94 98 100 100 100
15 8 8 8 7 5 4 6 32 21 16 16 27 35 37 38 40 42 34 40 42 43 54 37 30 26 19 24 82 100 68 65 84 92 92 99 98 91
8 8 8 7 4 4 7 33 17 16 17 21 25 29 32 33 36 50 46 37 45 47 44 42 30 23 21 26 88 87 55 91 100 97 87 93 92 98
8 9 6 4 4 8 33 16 16 18 21 24 26 27 29 34 43 53 76 53 52 63 51 35 32 22 24 45 90 63 67 75 84 73 85 100 92 100
10 6 4 5 8 33 18 16 20 21 23 34 41 45 51 58 76 82 82 73 67 62 60 55 42 29 24 70 83 80 76 78 80 78 82 99 100 96
6 4 6 9 32 18 18 26 32 30 31 35 40 45 50 58 67 81 80 72 69 63 50 43 32 31 35 80 50 78 83 84 90 89 79 95 100 97
5 6 11 32 17 19 31 33 29 34 38 34 35 45 54 74 71 69 77 76 74 57 52 41 28 38 100 100 72 64 86 94 95 79 91 94 100 100
7 12 31 19 26 35 33 29 41 42 31 32 41 49 57 69 75 78 77 68 58 51 39 32 34 99 98 89 100 100 100 100 96 95 100 100 88 99
10 30 29 38 39 35 32 41 42 33 29 34 46 64 82 86 85 73 63 46 40 34 33 34 99 98 88 100 100 91 99 89 91 99 96 85 95 100
32 42 44 43 40 36 43 49 41 30 32 41 59 81 95 91 88 81 72 49 47 34 32 96 100 93 100 100 80 89 100 99 100 96 86 99 100 100
43 49 46 44 40 45 53 50 36 31 36 51 62 73 89 92 90 75 68 61 45 33 82 99 100 100 100 96 60 69 85 92 98 98 100 100 100 100

GFSNE_500_rhum_030.txt.gz
RH
78 64 60 60 57 40 44 60 59 53 60 54 45 52 50 44 39 36 32 24 19 16 14 12 10 8 8 6 5 4 4 3 3 2 2 2 2 3
76 67 71 62 49 68 75 77 74 60 37 49 52 46 40 35 28 21 16 12 10 8 8 8 6 5 4 3 2 2 3 4 7 20 32 30 29 26
74 77 76 59 87 86 82 77 53 60 58 52 43 35 26 18 11 8 8 9 7 6 5 4 3 3 2 3 4 10 30 38 39 42 55 60 52 48
83 85 69 90 90 84 70 57 73 61 48 39 27 19 13 9 9 8 7 6 5 4 3 3 3 3 5 11 36 44 47 46 60 67 60 58 58 53
87 72 95 93 88 62 70 72 56 43 29 22 17 12 10 8 7 7 5 4 3 3 3 5 11 10 44 44 52 55 59 68 70 67 63 61 60 52
85 98 96 85 63 77 68 53 38 25 21 15 9 8 7 7 5 4 4 3 3 12 32 43 54 50 55 52 54 57 67 74 74 65 63 56 33 23
100 100 74 73 78 64 49 34 25 20 14 9 8 8 6 5 4 3 3 9 41 58 57 57 61 63 69 59 56 58 62 73 69 65 64 40 26 24
95 72 84 79 59 47 33 27 22 14 10 8 7 6 5 4 3 8 28 37 36 32 32 29 29 32 51 58 56 52 50 55 68 67 69 30 29 42
80 88 70 57 42 32 28 20 12 8 7 7 6 5 3 5 21 25 17 12 14 15 12 14 19 24 25 30 43 47 42 32 36 60 68 33 36 53
82 62 53 37 32 26 18 11 8 7 6 5 4 4 10 24 14 13 16 20 25 26 18 10 14 18 24 30 24 25 29 23 21 47 60 36 38 59
57 46 36 32 26 17 10 8 6 6 5 4 4 19 19 14 18 22 26 28 29 36 33 18 31 24 26 35 30 22 16 16 19 53 58 39 44 63
38 35 32 24 14 8 7 6 5 6 4 6 28 16 16 21 24 26 27 27 29 35 43 25 30 35 32 58 48 27 19 15 17 59 63 40 50 58
34 30 21 10 8 8 7 6 5 4 9 25 15 17 22 26 27 31 34 38 40 40 54 38 32 37 40 42 54 36 23 16 16 55 64 43 58 74
22 14 9 9 9 8 7 5 4 13 21 16 20 23 25 30 40 43 48 47 56 47 64 57 42 39 32 34 34 42 26 19 43 81 55 61 93 96
13 10 8 8 8 9 5 5 14 19 18 26 29 28 32 34 35 34 45 46 62 76 76 55 39 38 33 26 25 38 44 84 82 65 60 91 97 94
9 9 10 11 10 5 5 16 18 19 28 26 28 33 29 25 29 32 40 50 64 80 83 61 53 42 30 25 26 55 99 100 81 82 89 100 100 82
10 12 10 6 5 6 19 20 21 30 26 33 30 23 25 30 40 49 55 60 60 60 71 70 57 47 30 23 65 100 91 88 85 79 80 81 70 48
15 10 5 6 8 22 22 29 33 28 36 31 26 26 30 41 59 81 78 66 55 58 55 47 42 36 37 66 66 89 94 84 87 80 67 59 59 67
6 5 7 9 26 25 40 38 34 41 34 29 27 30 38 58 67 78 85 77 63 47 40 33 31 49 100 100 72 63 86 99 92 80 62 61 55 76
6 8 10 29 40 46 40 37 46 36 31 29 30 38 52 66 85 85 86 73 62 45 44 31 69 100 94 98 100 100 88 88 81 76 73 80 79 93
8 11 33 49 49 44 41 46 39 36 32 31 35 51 72 87 95 90 70 64 54 48 34 75 100 100 100 100 91 90 93 71 77 84 98 100 99 100
14 39 54 53 47 45 49 44 42 39 34 38 43 62 78 71 75 66 50 55 51 37 94 100 100 100 100 94 61 64 68 68 83 89 99 99 93 94
46 55 54 48 46 50 48 44 50 38 41 43 49 68 55 55 49 39 37 37 62 100 100 100 100 100 99 62 56 66 81 69 63 92 100 100 100 100

GFSNE_500_rhum_033.txt.gz
RH
81 81 82 74 74 71 65 62 55 32 45 87 77 68 56 52 54 48 39 31 24 19 14 12 12 12 10 8 7 7 6 5 4 3 3 3 3 3
83 82 85 85 85 78 73 57 50 63 55 70 62 56 59 52 40 30 23 18 14 12 11 10 9 8 8 7 5 4 3 2 2 2 2 3 3 3
83 84 96 94 93 83 64 70 85 80 71 57 60 61 47 35 25 19 15 14 13 10 9 9 9 7 4 3 3 3 3 4 4 6 20 36 42 41
86 99 100 100 94 67 77 93 90 70 62 66 57 44 32 25 22 18 14 11 10 9 9 9 5 3 3 5 11 12 8 16 40 47 63 62 58 53
99 100 100 95 77 91 95 89 68 78 71 53 41 29 24 20 16 12 11 9 9 8 5 3 5 13 26 32 31 37 45 45 44 57 69 72 72 72
100 100 95 93 99 98 83 75 83 66 53 36 28 23 18 12 8 8 10 9 5 4 6 13 23 24 24 27 32 38 39 38 43 59 68 74 70 71
96 98 100 100 96 75 83 79 60 46 34 29 23 13 8 8 9 11 7 4 4 14 17 13 12 14 16 12 12 19 27 31 36 50 60 62 69 70
100 100 100 80 79 84 69 56 38 34 27 20 11 9 8 9 9 5 4 5 17 16 15 20 22 24 26 20 15 12 13 21 23 40 52 50 46 62
100 86 74 85 79 60 47 37 33 27 15 10 9 8 8 6 5 4 12 16 17 24 26 24 28 28 33 28 21 19 15 12 18 21 40 43 35 32
74 85 85 65 51 39 37 29 20 12 9 8 7 7 7 4 5 15 15 18 26 28 29 14 30 34 37 39 28 26 23 16 13 20 23 26 27 24
88 63 52 40 38 31 21 14 12 10 10 9 8 6 4 9 17 16 22 22 20 22 35 16 30 37 37 52 43 40 31 30 20 14 23 21 17 18
50 39 36 31 27 18 15 14 14 11 9 9 5 5 17 18 23 25 20 18 17 16 27 16 30 38 34 57 66 56 48 50 33 20 21 23 18 19
37 35 29 23 21 18 14 10 9 10 7 4 8 24 20 30 29 27 26 19 18 20 25 23 33 39 44 32 63 58 58 54 39 28 20 20 19 31
33 26 17 9 8 9 11 12 8 4 6 17 22 24 30 29 33 27 24 24 29 30 33 37 33 43 53 44 38 57 50 41 35 27 20 16 35 68
25 19 11 9 9 11 9 4 4 7 23 21 30 31 30 31 27 26 29 34 51 66 57 42 37 47 51 37 31 38 33 38 28 21 32 82 71 51
11 10 10 10 9 5 5 5 11 24 25 35 32 33 30 28 31 34 41 50 60 83 81 48 48 47 40 37 27 31 35 34 37 75 81 79 80 77
10 9 11 8 4 5 6 16 25 36 37 30 32 31 30 33 41 50 58 60 57 61 75 54 42 36 33 32 77 90 100 98 94 100 93 98 100 85
10 11 4 5 6 8 26 36 42 36 34 36 33 31 32 41 53 71 79 69 59 71 50 39 41 36 50 79 90 100 98 96 96 91 81 84 100 80
7 4 5 7 11 38 49 46 39 40 39 35 33 35 43 51 52 65 73 65 58 59 44 37 39 94 100 100 85 58 74 96 95 89 70 67 64 76
4 6 8 22 49 52 45 44 43 43 38 36 41 49 40 39 45 47 47 46 52 53 44 60 97 95 99 100 100 100 78 74 74 90 96 84 70 70
6 14 43 55 51 46 47 44 46 46 37 44 53 67 40 40 40 39 44 40 45 68 99 98 97 92 98 86 66 68 85 72 68 80 99 100 100 100
40 52 54 49 46 48 46 45 52 48 42 51 73 90 89 95 97 97 97 99 99 98 96 100 100 100 87 66 67 62 57 61 87 93 89 85 80 77
49 50 45 46 48 46 45 48 56 52 46 54 69 86 95 100 99 96 98 99 100 100 100 100 99 92 78 60 54 44 44 79 99 100 100 100 99 98

GFSNE_500_rhum_036.txt.gz
RH
59 47 61 70 72 72 69 65 59 54 56 86 75 75 88 84 74 61 54 60 56 47 39 32 27 24 21 18 15 12 11 10 9 8 6 4 3 3
62 51 59 68 75 75 68 63 65 61 60 65 64 85 84 73 62 58 60 52 43 33 27 23 20 17 15 13 12 11 8 6 4 3 3 3 2 2
54 61 75 81 86 85 78 85 85 80 80 73 79 79 68 64 68 59 48 38 29 23 20 17 13 11 12 13 9 5 4 3 3 3 4 6 7 6
54 73 94 100 100 100 100 99 100 99 88 82 80 66 69 67 54 45 34 28 23 17 12 10 12 14 9 4 4 3 3 7 12 16 17 15 28 30
73 72 96 100 100 98 100 100 99 98 95 83 70 74 62 49 37 30 25 19 12 10 11 12 12 6 5 4 5 11 11 10 9 11 24 33 41 42
86 100 100 99 100 100 98 98 98 91 81 87 74 54 40 33 28 22 14 11 13 10 9 8 6 5 7 10 12 13 14 13 12 11 10 17 33 46
98 95 98 99 98 99 99 89 76 90 83 58 42 32 26 21 15 14 14 13 9 7 6 5 5 10 14 17 20 20 19 16 15 18 16 11 17 31
98 98 100 99 98 77 75 87 84 55 41 32 28 26 19 17 16 13 9 8 7 5 5 11 16 17 23 24 24 22 19 16 20 22 21 14 11 21
97 92 80 68 76 86 77 52 42 35 33 26 21 18 12 9 8 8 8 5 4 14 18 16 21 23 23 22 25 21 18 21 24 29 26 18 16 17
62 68 78 85 70 50 41 36 35 29 23 16 12 10 8 8 7 5 3 6 19 19 24 17 19 20 17 18 25 22 27 29 31 31 26 20 22 23
78 76 58 50 42 40 38 32 28 25 18 12 10 9 8 5 3 4 16 20 22 23 33 18 18 18 18 22 27 40 48 47 42 36 24 26 36 31
54 50 45 43 38 26 17 14 12 12 12 10 9 6 4 5 13 21 21 21 23 24 30 24 24 24 21 28 47 78 81 72 53 31 25 28 44 36
47 44 40 32 28 22 17 15 15 12 10 8 4 5 10 25 25 31 29 27 28 28 29 25 23 25 27 35 44 78 72 70 53 44 28 24 30 36
39 38 32 27 24 20 17 12 9 8 4 5 7 22 25 34 37 34 32 30 31 33 35 36 29 32 48 41 38 62 66 53 46 36 26 26 25 26
32 30 28 26 20 14 9 8 5 4 6 16 28 34 36 36 35 32 33 34 44 56 52 48 40 48 43 38 33 34 32 36 26 22 22 29 44 48
28 26 18 12 10 9 5 4 5 10 28 36 39 40 38 34 32 30 31 38 48 66 75 45 50 44 41 36 38 56 43 42 36 47 88 99 89 77
13 10 12 13 6 4 5 8 27 40 40 38 40 37 34 34 40 30 29 35 38 46 59 64 58 42 43 70 100 100 100 100 90 100 90 100 95 77
14 13 7 3 4 7 22 42 44 42 42 44 34 33 50 46 28 28 32 34 35 43 42 41 46 79 99 86 82 100 99 87 94 96 81 74 97 99
6 3 4 6 18 42 44 44 44 45 47 33 36 59 79 61 48 40 36 37 43 48 67 93 100 100 100 100 88 57 69 79 88 92 95 92 93 100
3 8 21 37 40 41 45 43 46 51 38 36 43 78 86 91 94 95 90 97 99 100 100 100 97 95 96 99 100 100 78 71 69 71 77 83 91 93
21 30 34 34 39 42 41 44 52 53 44 42 41 68 87 92 93 92 96 90 95 94 96 99 98 85 82 83 84 100 100 90 76 66 68 72 86 100
29 32 32 36 42 48 51 51 53 56 47 43 44 42 74 88 92 96 96 98 92 95 100 96 98 100 99 86 76 73 88 100 100 99 96 94 92 91
30 33 37 43 48 53 55 56 58 61 51 42 42 35 35 75 94 94 93 99 100 100 95 99 100 100 100 92 76 83 100 100 94 100 100 100 98 98

GFSNE_500_rhum_039.txt.gz
RH
69 55 54 99 90 68 57 56 67 69 77 97 99 100 94 90 85 82 73 67 68 62 53 49 50 50 46 41 36 32 28 25 21 18 16 14 13 11
55 64 78 84 89 62 57 81 92 87 77 88 98 99 86 82 85 76 78 71 61 56 63 59 51 43 36 32 28 25 21 17 15 15 14 11 7 5
53 60 98 96 86 78 84 94 88 85 67 63 72 80 77 85 90 72 66 60 69 68 56 44 36 30 25 22 19 17 17 15 11 9 7 5 4 3
56 100 97 96 78 66 84 89 67 84 74 73 87 94 92 86 73 70 81 73 57 41 32 26 23 21 20 19 16 11 9 8 6 5 4 3 3 4
80 99 97 95 85 100 100 100 94 92 93 92 96 90 71 81 82 68 48 37 31 28 25 21 18 12 9 10 9 8 6 4 4 4 6 9 10 10
83 98 91 84 90 99 100 96 98 97 99 92 72 77 80 61 44 36 32 30 26 20 14 10 8 10 9 8 6 4 4 7 11 12 12 10 8 9
98 96 98 100 100 100 100 99 98 86 78 82 80 55 44 38 35 31 26 24 20 14 12 11 9 7 5 4 6 15 17 16 18 16 11 10 12 12
99 100 99 100 99 98 94 72 72 79 73 50 45 41 37 30 24 19 14 15 14 10 7 6 4 4 7 17 18 19 21 21 17 15 13 13 14 16
92 100 98 99 91 65 70 78 61 52 47 43 35 28 23 19 17 18 17 12 8 6 3 4 10 20 21 26 30 30 28 24 22 18 16 18 19 18
99 98 98 65 63 71 55 52 47 41 37 34 30 27 24 22 20 14 9 7 4 6 17 18 21 24 26 31 33 30 28 26 24 23 22 20 18 26
53 54 65 58 52 52 41 35 35 33 32 32 29 23 18 13 9 6 4 5 14 22 37 24 23 23 24 30 33 36 36 32 25 22 21 23 31 38
52 48 50 47 34 30 30 28 28 31 31 25 17 14 11 5 4 8 17 24 24 22 35 26 30 29 24 27 30 48 64 63 46 37 34 35 39 33
49 43 32 30 29 29 29 29 24 18 14 14 11 4 5 12 29 33 31 30 30 28 28 18 19 24 26 25 35 55 68 66 54 52 46 44 37 31
30 31 30 30 29 26 20 15 14 12 5 3 5 13 33 39 37 35 34 28 26 21 21 21 22 33 41 48 48 58 55 48 44 43 37 31 26 28
28 27 25 21 16 11 8 5 3 3 5 18 38 40 40 40 33 31 37 24 24 23 21 23 34 38 36 33 31 38 33 37 28 30 35 76 98 95
21 15 13 11 9 5 3 3 6 22 39 40 43 42 32 32 51 45 31 26 27 32 26 26 33 45 65 85 97 98 88 100 99 82 90 96 88 87
12 8 7 4 3 3 9 22 28 33 38 39 32 30 38 74 79 81 83 76 64 64 67 78 82 82 78 68 87 99 100 100 96 98 92 100 100 89
4 4 3 4 11 18 21 25 32 37 40 30 29 32 58 77 87 90 87 83 81 82 84 93 100 100 98 94 57 67 89 94 100 100 99 91 99 96
3 4 12 17 18 22 27 30 36 43 40 32 33 33 42 72 87 93 93 90 94 91 88 86 94 98 100 100 100 74 58 64 75 90 92 90 91 100
9 14 16 19 22 26 32 36 42 47 46 38 34 33 32 40 74 87 86 88 97 100 100 98 92 96 97 97 98 100 98 78 76 70 78 90 100 100
14 17 20 24 28 33 38 41 45 50 54 44 37 34 31 28 37 75 84 88 91 95 100 98 96 98 94 97 98 100 100 99 94 91 90 96 100 100
17 20 25 32 38 41 44 46 48 50 52 50 42 37 34 29 24 43 75 86 99 98 100 100 99 99 94 96 100 100 100 100 98 96 95 94 82 83
18 22 31 43 49 53 54 53 52 50 54 55 54 44 36 37 24 24 50 78 95 100 99 100 100 100 100 100 100 100 100 100 93 95 100 93 68 38

GFSNE_500_rhum_042.txt.gz
RH
52 75 91 93 94 78 63 70 70 83 88 76 80 81 70 64 61 58 60 55 60 62 70 72 69 61 55 52 51 52 55 52 46 40 36 33 30 26
40 62 82 84 75 56 66 63 100 97 88 72 82 84 84 82 79 82 79 75 77 81 80 76 67 62 64 61 58 51 42 37 32 28 25 23 21 20
46 51 78 70 64 67 90 96 98 99 89 76 93 100 99 92 94 92 78 72 79 82 70 77 72 59 47 40 36 33 30 27 23 17 14 12 10 10
73 69 68 70 61 56 96 89 99 99 97 76 100 100 100 100 87 89 90 69 73 81 68 48 41 37 34 31 27 23 18 15 13 12 11 9 8 6
86 69 72 74 66 80 98 100 99 97 98 99 100 100 90 99 90 70 74 75 59 47 43 39 34 28 23 19 16 16 16 14 12 12 8 5 3 3
94 84 75 70 72 83 97 98 99 100 100 99 96 90 79 81 77 59 51 48 43 38 31 27 24 22 22 20 18 14 12 9 6 4 3 3 4 7
86 86 72 94 95 100 100 99 98 99 99 98 97 91 77 55 50 43 36 29 31 31 30 28 24 18 12 10 8 6 4 4 5 8 12 15 17 17
76 83 100 100 92 99 99 99 99 100 91 83 61 50 46 34 30 30 29 29 30 29 23 16 13 11 8 4 7 15 19 20 20 21 20 19 19 18
80 98 97 98 100 99 98 91 84 68 59 48 39 30 31 29 29 27 22 16 13 14 12 8 4 6 15 23 27 30 32 33 31 28 25 23 22 22
99 98 100 98 90 78 72 63 51 44 33 32 32 29 25 19 14 10 10 7 4 4 7 12 24 26 29 35 38 37 37 35 32 29 28 27 27 26
99 99 89 71 56 52 40 27 27 30 30 28 22 15 12 10 8 4 3 5 14 26 38 22 28 26 24 26 32 41 40 33 26 23 22 20 20 22
48 50 47 41 28 24 24 24 24 20 15 13 10 8 5 3 4 9 21 23 22 22 23 14 17 17 12 23 31 44 46 38 32 29 26 26 32 28
40 28 25 27 27 25 22 17 12 8 5 4 3 3 5 17 25 29 26 20 19 18 13 11 18 23 22 24 45 41 44 43 41 42 32 28 28 29
29 28 24 19 14 11 9 7 4 4 3 3 9 18 23 26 22 22 40 53 39 30 35 41 44 45 46 40 35 38 35 35 32 32 42 60 77 79
21 14 10 7 6 4 4 3 3 6 14 17 21 24 20 18 26 62 68 69 70 61 52 50 54 68 68 65 81 89 89 100 80 76 80 84 78 82
10 6 5 4 4 4 4 8 13 14 20 25 26 20 18 21 49 64 73 74 80 84 70 68 68 74 78 72 68 89 94 100 100 91 79 93 86 74
6 4 4 4 5 8 11 13 18 22 25 28 23 20 19 22 35 60 69 73 68 76 88 90 87 98 96 83 75 59 66 81 73 85 99 100 100 100
4 5 5 6 9 12 16 19 24 26 30 31 25 24 23 21 22 33 62 76 78 87 83 83 89 97 100 100 77 71 82 62 73 72 70 81 100 100
6 6 7 11 14 18 22 25 29 32 34 36 34 32 31 26 24 20 31 66 86 93 94 84 90 89 88 100 100 83 71 78 79 84 80 89 100 100
7 9 12 14 16 22 29 35 39 40 40 41 43 42 40 36 32 26 20 39 70 82 98 94 92 92 88 88 91 100 91 87 92 96 89 100 100 100
10 14 15 17 19 27 38 43 47 49 48 47 47 46 45 45 38 35 25 23 51 68 87 99 98 98 95 97 96 100 100 91 88 85 91 91 100 100
18 19 20 19 23 36 46 52 54 55 57 55 49 46 48 48 44 40 36 22 30 55 78 100 100 100 95 87 99 100 100 100 98 95 83 84 81 91
19 19 20 29 37 42 50 57 61 61 63 66 63 60 52 52 51 42 40 28 24 36 66 89 100 100 100 99 100 97 100 100 100 100 100 87 85 87

GFSNE_500_rhum_048.txt.gz
RH
87 94 100 89 91 92 90 80 91 88 80 93 76 66 72 95 99 92 70 56 69 88 91 94 89 82 73 70 66 60 56 44 41 46 47 47 43 37
86 88 88 89 81 78 89 82 86 95 91 81 85 69 63 99 95 93 76 68 66 74 92 98 97 90 85 84 70 68 66 66 61 45 33 31 28 28
97 100 100 96 88 67 80 81 75 70 76 84 98 99 95 98 99 95 98 76 90 90 95 95 95 98 96 95 96 86 65 42 35 31 26 22 20 19
32 36 38 45 45 45 50 71 57 75 88 99 98 89 82 99 98 97 81 100 99 86 91 96 98 96 96 93 69 47 25 22 21 21 20 19 18 17
24 23 25 26 28 30 71 82 79 99 98 97 72 65 76 99 90 88 95 95 99 100 100 96 85 70 44 28 22 22 20 17 14 12 10 8 8 9
51 49 45 42 42 41 39 78 98 97 80 93 87 93 99 96 97 97 98 100 98 96 93 80 56 27 23 21 18 13 10 7 6 5 4 3 3 3
51 43 32 30 99 49 76 83 98 100 100 99 87 95 96 87 100 100 88 50 37 32 27 25 22 16 11 8 6 5 4 3 3 4 6 8 11 13
57 44 42 81 100 100 78 84 100 85 88 97 95 100 100 92 55 28 24 20 15 14 8 7 6 5 4 4 4 4 5 6 6 6 7 8 9 9
70 69 66 74 79 87 100 100 99 99 100 100 92 60 29 22 19 11 6 5 6 5 4 4 4 6 8 10 9 7 6 8 16 19 21 16 13 12
72 50 93 100 100 100 100 100 92 74 61 42 23 18 14 10 8 5 4 4 4 4 6 9 10 9 10 20 17 22 26 27 30 34 38 40 29 18
100 100 100 100 97 80 46 30 25 20 7 3 3 3 3 3 4 4 4 5 11 11 9 9 15 20 45 50 43 35 34 35 37 37 37 42 44 28
100 98 84 47 32 26 23 15 9 6 4 4 3 3 4 5 5 6 10 13 12 12 10 30 48 44 44 67 60 50 48 50 56 56 44 52 53 53
42 33 28 25 20 16 10 7 4 4 4 4 5 6 6 7 10 12 14 15 13 14 11 16 44 51 46 49 84 69 70 71 70 66 52 57 54 48
27 24 20 15 10 9 6 4 4 4 6 6 7 8 9 13 16 18 19 20 18 19 18 13 26 44 49 58 65 80 79 77 75 61 59 71 54 51
23 17 12 9 9 6 6 4 5 7 7 8 10 13 14 20 24 26 25 26 28 25 21 14 14 34 46 46 54 74 74 80 67 63 73 76 69 64
18 14 9 6 5 5 5 5 7 9 11 13 14 17 23 30 33 35 37 36 38 38 31 23 16 27 50 56 68 74 78 74 73 58 74 79 73 78
18 10 6 6 5 5 6 9 13 15 16 17 22 31 39 43 43 43 42 42 38 42 42 32 18 26 51 60 76 78 74 76 68 75 80 97 96 86
11 8 6 5 6 8 13 17 18 18 23 31 37 45 51 53 52 52 47 43 42 45 44 38 22 24 41 53 68 84 83 81 86 94 96 100 100 94
9 6 5 7 10 16 20 18 21 31 33 36 42 52 60 62 60 61 60 55 50 47 49 44 29 22 36 47 62 82 83 85 90 98 99 100 100 100
10 5 7 11 18 22 20 27 36 40 42 44 48 54 60 63 62 62 61 58 54 52 52 51 43 22 26 37 52 76 84 78 85 100 100 100 99 100
8 6 9 19 24 24 29 38 40 45 50 58 60 60 61 65 67 65 62 60 51 47 45 50 45 27 22 30 41 58 84 86 87 88 100 94 95 100
6 8 14 22 25 27 40 45 48 53 59 64 67 66 65 64 58 55 53 54 55 48 46 47 45 39 28 23 34 49 77 100 97 93 95 86 80 98
7 10 18 22 26 38 46 51 52 59 62 64 69 68 64 67 60 54 49 47 46 46 45 44 50 44 26 23 31 42 61 100 99 100 99 93 93 89

GFSNE_500_rhum_051.txt.gz
RH
56 65 59 76 99 99 94 94 98 98 94 89 89 96 97 89 91 85 78 73 94 62 67 91 92 82 67 72 58 64 68 70 73 72 68 63 54 47
64 75 75 81 90 95 99 94 97 98 88 81 98 91 98 65 68 75 87 85 88 90 99 93 99 90 78 72 71 73 62 67 69 73 81 78 69 67
80 71 66 72 76 83 86 84 96 95 94 72 55 66 99 88 73 73 63 98 80 76 72 96 96 93 86 69 77 80 69 65 70 77 84 85 78 80
71 77 64 48 44 44 49 62 57 43 46 36 83 92 99 95 98 98 99 91 69 77 74 98 87 82 79 76 86 93 99 95 93 92 80 66 46 27
84 56 49 55 47 38 37 36 30 32 48 34 36 50 61 62 98 95 97 98 99 98 96 90 87 86 93 93 86 61 35 24 19 18 18 16 14 10
100 86 59 46 42 37 39 41 44 42 68 96 64 95 96 87 96 93 92 86 90 96 96 95 86 65 36 18 12 9 7 6 5 5 4 4 4 4
100 97 76 68 63 60 57 49 40 34 70 71 95 93 81 93 98 99 100 96 78 72 53 29 16 14 11 9 7 6 5 4 4 3 4 4 5 5
82 56 50 50 49 45 38 38 51 100 100 97 71 80 100 98 93 71 22 12 8 6 4 5 4 4 4 3 3 4 4 4 5 5 5 5 8 14
61 64 59 63 66 99 91 94 77 92 98 96 99 89 54 26 19 5 4 4 3 3 3 4 4 4 5 6 6 6 6 6 6 14 24 29 29 29
100 98 74 92 97 86 67 99 100 97 86 49 22 10 7 5 4 4 4 4 4 4 5 6 7 9 10 10 9 10 13 20 26 26 32 32 33 40
98 98 99 100 100 100 97 78 39 25 17 11 9 6 4 4 4 4 5 6 6 8 8 11 11 12 14 13 21 29 33 29 30 36 39 45 44 46
100 99 94 79 60 41 26 21 15 11 10 7 6 6 5 4 5 6 7 8 10 14 14 17 17 16 16 18 20 40 42 34 39 51 59 63 55 53
34 32 30 28 25 21 17 14 10 8 7 6 5 4 5 7 8 10 13 15 18 21 20 20 22 22 22 16 19 36 49 49 48 63 66 66 56 48
34 31 28 23 21 20 17 12 8 7 6 4 4 6 8 10 11 13 14 20 27 29 29 25 24 25 25 20 17 39 54 48 55 66 72 73 47 54
34 32 30 28 24 18 13 10 8 5 5 6 9 12 14 15 15 18 25 33 38 37 36 32 27 27 28 22 18 36 48 62 64 67 77 74 58 48
38 36 34 29 23 16 10 6 5 6 10 14 16 17 18 25 29 33 40 40 45 48 44 39 32 31 34 30 21 32 45 48 70 82 84 83 88 90
42 38 34 26 19 10 4 4 7 14 20 19 18 27 33 35 38 40 46 51 53 55 58 49 42 36 37 38 26 29 37 49 66 74 79 90 94 83
44 40 32 18 8 5 5 8 16 21 20 26 34 37 43 45 48 49 50 54 55 57 60 60 52 43 44 47 35 28 29 38 53 76 90 92 100 88
42 30 17 10 8 7 7 15 22 22 30 36 41 46 50 55 56 55 56 59 61 58 63 62 52 43 39 42 52 31 26 34 43 59 85 99 100 99
38 22 12 10 8 8 12 21 23 26 39 44 47 52 56 59 60 60 61 60 57 54 57 63 57 49 43 38 34 34 26 28 32 42 66 95 99 100
30 18 16 10 8 11 18 22 23 35 45 48 52 56 61 64 64 65 65 62 56 54 51 51 52 48 43 42 34 34 32 25 26 36 54 97 100 100
34 22 16 8 10 14 16 22 25 39 49 56 62 62 64 65 69 72 70 69 59 54 55 53 49 44 45 44 40 38 37 28 26 33 51 93 87 100
32 22 12 8 15 17 18 24 29 43 49 53 62 65 71 74 63 66 78 76 71 71 61 53 47 45 41 42 42 39 39 38 27 30 57 94 93 89

GFSNE_500_rhum_054.txt.gz
RH
85 76 77 65 44 80 94 86 74 70 85 97 97 98 97 95 87 99 100 94 90 93 80 68 63 78 76 79 68 82 74 56 78 77 74 64 55 60
62 98 97 84 61 70 89 82 71 63 60 74 97 96 96 78 97 97 97 78 92 81 97 98 89 86 80 72 80 66 68 69 66 66 79 70 55 60
58 55 100 100 97 92 99 94 82 75 62 55 96 93 86 98 92 96 65 86 83 96 98 98 93 84 91 86 69 64 67 72 74 72 70 64 61 65
81 85 96 100 98 100 99 99 96 90 94 100 88 100 79 62 46 38 49 39 46 48 63 56 67 92 88 83 84 80 77 69 72 83 79 74 82 79
100 98 100 97 100 99 91 99 88 66 56 49 45 39 33 28 29 74 82 99 100 100 95 80 77 85 97 94 84 79 83 62 48 39 31 30 22 15
84 90 92 100 100 98 90 64 55 49 40 34 32 37 40 49 48 56 84 78 100 90 80 95 97 85 49 27 37 11 8 7 6 5 5 5 5 5
85 98 92 92 100 100 96 76 59 56 57 60 63 52 48 89 100 100 99 98 90 85 65 25 11 7 4 4 4 4 4 3 3 3 3 4 4 4
88 93 100 100 100 100 99 84 64 54 53 55 66 87 95 77 100 99 81 28 15 8 5 4 5 4 5 5 5 4 4 5 5 5 5 6 6 6
99 97 97 98 96 81 72 70 69 96 83 74 87 96 98 76 27 12 8 6 5 5 5 4 4 5 5 6 6 7 7 7 7 7 7 8 13 22
100 100 100 100 100 91 85 87 99 98 92 76 66 40 18 10 8 8 8 6 6 6 5 6 6 7 8 9 10 11 10 10 11 10 9 23 30 33
88 99 100 100 98 98 87 55 38 26 21 19 15 11 10 9 9 7 6 5 4 6 6 8 8 11 15 18 18 18 17 16 14 11 12 32 34 40
35 35 34 33 32 30 27 25 23 22 22 19 15 10 8 8 6 5 6 8 9 10 10 11 11 11 21 32 31 28 25 20 16 11 12 34 37 38
38 37 35 33 31 31 30 30 29 26 20 16 11 8 8 5 7 10 13 14 15 15 14 16 29 29 31 31 44 39 32 27 19 16 22 40 44 58
39 38 37 37 37 36 34 32 28 19 14 13 10 6 6 11 14 16 17 18 24 30 30 29 34 39 40 39 37 44 37 31 22 28 45 52 61 67
36 36 36 37 38 37 34 29 19 13 12 9 7 7 13 18 18 20 30 34 37 39 39 38 39 42 43 41 35 39 33 41 27 30 43 51 66 73
40 40 41 41 42 38 31 20 12 12 11 6 9 16 19 19 29 32 35 39 43 45 46 45 44 42 44 47 43 39 40 33 31 28 36 48 66 75
48 47 47 45 43 37 28 16 12 9 6 11 18 21 23 33 35 38 41 46 50 53 57 58 55 50 48 50 46 42 39 39 29 24 31 39 55 76
51 50 48 46 43 36 27 20 12 6 9 14 19 22 37 40 42 45 47 51 55 57 62 62 58 55 52 61 50 46 44 43 40 28 24 30 40 58
53 52 51 48 43 38 29 18 7 8 13 17 22 30 43 43 44 45 48 56 61 63 65 60 56 51 47 46 53 60 42 42 41 36 28 26 31 40
54 53 55 51 46 32 19 12 8 13 16 19 24 36 48 53 60 59 59 58 57 67 74 74 64 53 48 40 38 55 55 44 42 30 24 24 26 31
57 58 60 58 40 25 18 9 10 18 18 20 27 36 48 53 60 64 68 73 72 63 73 84 77 67 59 46 37 40 45 46 42 31 28 26 24 29
60 63 68 58 33 23 10 10 15 23 22 22 27 32 44 56 62 66 70 79 84 83 68 74 84 77 67 58 45 35 36 41 43 39 36 26 23 27
58 63 62 45 34 16 10 12 19 29 31 28 30 33 45 63 71 74 79 86 78 76 69 65 81 82 65 54 47 32 31 34 36 36 35 34 26 23

GFSNE_500_rhum_057.txt.gz
RH
23 24 29 43 89 100 99 99 99 93 70 90 96 99 90 95 98 98 98 98 98 98 98 98 98 99 98 96 69 69 69 59 64 54 58 61 60 42
19 31 35 48 48 76 98 98 97 94 90 60 68 90 90 86 79 100 98 95 98 98 98 93 96 92 95 88 66 92 84 79 74 65 68 63 57 50
39 58 78 88 69 72 100 98 92 99 98 73 61 78 98 79 98 89 96 100 99 97 88 58 51 62 53 43 40 41 53 53 65 64 71 74 64 57
34 58 70 99 100 95 83 96 98 100 80 98 98 99 99 99 98 99 92 87 64 40 31 29 63 76 81 88 87 87 67 82 75 71 71 75 69 63
39 56 45 84 97 100 97 80 72 98 99 95 99 100 98 97 77 62 54 35 32 44 52 64 70 84 97 92 89 78 81 73 74 69 52 38 40 27
43 53 38 55 82 86 78 81 64 56 84 99 99 90 67 50 45 45 57 61 55 74 98 95 96 73 40 40 50 37 20 11 7 5 7 6 6 5
44 51 37 46 72 71 95 93 100 74 94 99 85 61 50 58 60 77 64 84 99 92 75 44 16 12 7 6 5 4 4 5 5 5 4 4 4 5
52 52 63 74 82 88 82 78 100 100 100 99 89 84 90 97 92 88 94 98 42 17 10 8 10 9 9 8 7 8 9 8 8 6 5 5 6 6
57 63 67 83 91 97 98 100 100 100 100 96 93 97 88 64 34 23 19 14 12 11 10 10 9 7 6 5 6 5 5 6 6 7 7 7 8 8
52 67 72 78 85 93 89 85 76 70 53 38 26 23 22 21 20 19 17 15 13 11 9 7 6 6 6 6 8 8 8 9 10 10 11 13 14 14
26 27 29 30 30 29 30 30 29 28 27 26 27 26 25 21 16 14 12 12 10 7 5 8 9 11 13 13 13 13 12 14 14 16 18 19 18 16
28 30 30 30 31 32 32 33 34 33 32 31 30 24 17 15 15 15 11 8 7 8 11 14 14 16 18 24 26 25 25 25 25 26 24 21 19 16
35 36 37 37 37 36 37 38 37 36 34 29 24 16 16 18 16 7 7 11 16 18 17 18 25 28 30 39 55 47 42 38 37 35 29 24 24 17
37 38 39 39 39 39 39 37 36 36 34 31 23 21 20 21 7 7 13 17 20 26 28 28 36 37 38 41 49 60 53 51 47 40 34 33 31 23
44 45 46 46 45 43 41 40 41 38 36 33 30 25 14 7 8 14 18 25 33 33 33 34 39 43 43 46 51 61 58 70 60 50 40 42 36 27
48 48 46 46 46 45 45 43 42 41 40 35 20 8 6 9 15 20 26 37 39 37 38 39 41 42 45 46 49 56 54 52 59 52 42 45 40 28
48 46 46 45 45 48 47 46 46 47 40 25 12 7 8 15 18 20 37 42 40 41 43 42 46 49 48 45 47 48 50 52 45 45 39 39 41 33
51 49 48 47 49 50 52 52 55 50 37 23 13 8 13 17 19 22 39 45 48 49 55 55 48 45 52 63 54 47 48 43 41 40 38 35 46 48
52 49 46 46 51 54 56 59 58 45 33 22 9 11 19 20 21 27 40 51 55 59 63 64 64 55 45 61 78 74 60 50 42 40 37 33 39 46
53 47 45 48 50 50 56 58 49 43 34 12 11 16 25 23 26 32 41 53 60 65 72 73 69 64 56 48 55 95 83 52 44 39 35 31 36 36
58 56 53 53 54 54 58 61 57 50 18 12 15 20 31 31 32 40 48 56 61 68 74 80 80 78 66 53 50 67 90 81 52 44 31 28 31 34
69 64 59 61 65 62 64 68 64 34 11 14 18 21 33 44 43 49 59 65 77 77 80 84 90 91 80 62 55 56 76 73 56 51 33 23 24 24
70 70 72 75 76 70 70 69 48 11 12 14 16 20 37 64 77 74 71 73 76 84 88 93 98 91 78 70 61 62 60 42 36 42 36 27 23 20

GFSNE_500_rhum_060.txt.gz
RH
8 8 10 11 18 29 46 48 48 49 58 90 100 99 99 100 99 98 98 100 97 99 96 97 98 98 99 98 96 97 98 96 99 96 94 72 71 69
10 14 13 17 16 42 38 81 100 96 90 63 100 100 98 95 96 99 98 92 99 99 97 96 99 96 98 98 98 94 80 70 53 60 50 56 40 69
13 15 21 16 14 19 24 63 86 88 72 85 100 99 100 100 91 99 99 99 98 96 99 99 95 94 96 92 90 77 34 42 50 54 69 59 47 45
19 22 22 18 16 19 28 40 85 98 86 89 86 99 99 100 100 98 99 98 98 97 96 92 80 74 51 52 50 50 52 54 52 58 66 64 73 55
27 25 23 24 22 22 28 46 59 80 93 72 52 75 90 99 95 98 95 94 97 94 91 71 48 63 53 54 70 80 81 81 71 66 67 68 61 58
28 30 27 26 31 38 40 45 51 65 66 86 78 57 74 74 88 93 95 92 74 63 65 67 74 82 80 74 52 32 14 12 12 9 8 7 6 7
22 26 33 39 41 42 57 72 76 69 47 63 97 72 55 64 94 88 82 94 92 78 64 44 35 35 21 10 10 11 12 13 11 10 8 6 8 9
17 22 29 34 43 53 59 69 78 83 87 96 88 78 82 84 89 85 70 50 28 26 19 19 19 17 15 13 12 12 12 11 8 7 7 8 8 8
15 14 14 14 15 18 24 28 34 36 38 42 44 51 55 46 32 34 22 21 22 20 18 15 14 14 13 10 8 7 7 6 6 6 6 6 7 7
15 15 16 17 18 18 20 22 23 23 23 23 22 21 21 21 21 21 21 20 18 17 18 17 14 10 8 6 6 7 8 9 10 10 10 10 11 11
19 20 23 25 26 27 28 28 30 30 30 28 28 28 28 27 25 24 22 19 18 19 17 12 10 8 8 11 14 14 14 14 14 13 14 15 16 17
27 29 31 33 34 35 36 36 35 35 36 35 34 33 32 32 31 28 26 25 22 18 11 7 9 13 15 17 19 23 24 26 27 27 26 26 27 28
34 36 37 38 38 39 41 43 42 41 40 39 38 38 37 36 36 32 24 20 16 13 7 11 15 20 28 34 37 35 34 32 33 33 32 32 31 30
42 42 42 42 41 40 40 40 40 41 42 43 42 41 42 42 40 30 22 20 11 8 12 16 28 26 28 38 48 47 43 43 44 43 41 38 39 39
51 51 49 48 47 44 42 41 40 42 44 46 48 47 48 47 41 32 24 9 9 14 16 23 34 32 30 36 48 58 52 57 55 53 51 50 47 46
66 58 53 52 50 45 41 38 37 39 42 46 49 52 52 42 39 28 12 9 16 19 20 35 39 33 34 37 40 64 58 54 60 55 56 59 55 52
67 59 55 54 52 48 43 39 40 43 42 44 51 54 52 50 42 19 11 17 24 27 31 44 46 46 46 53 58 55 57 66 63 56 49 50 54 52
75 67 60 57 55 52 51 46 44 46 48 51 58 61 57 46 19 13 16 24 29 34 43 58 61 59 58 61 60 66 70 55 59 63 65 52 48 48
83 73 66 63 62 61 58 55 57 61 62 65 65 60 49 14 12 15 20 28 34 34 44 58 65 64 65 69 72 75 72 71 58 57 60 59 48 54
90 80 71 65 64 62 65 66 65 68 71 71 62 52 17 11 14 16 22 36 46 47 58 70 67 58 60 63 68 99 87 75 69 56 54 54 54 45
93 85 79 75 80 81 74 68 71 77 78 67 58 25 12 13 12 12 18 41 64 74 75 98 96 79 75 70 72 91 100 97 76 60 55 52 59 36
90 84 81 84 91 91 85 78 82 85 77 64 40 12 13 12 12 13 16 24 56 92 100 100 100 91 78 60 61 71 94 100 87 64 52 44 32 21
96 88 92 94 94 93 84 87 95 87 74 60 17 13 13 14 15 14 15 19 25 37 53 90 100 100 94 85 72 68 70 78 85 79 72 48 21 16

GFSNE_500_rhum_066.txt.gz
RH
14 12 11 10 11 15 14 13 12 15 17 21 17 19 17 22 31 50 64 90 88 73 78 73 94 100 100 99 99 96 94 86 91 96 97 95 100 98
15 14 14 14 17 15 14 13 15 17 17 19 21 22 24 24 30 65 94 96 63 83 98 100 99 99 99 100 100 97 93 94 100 95 96 96 94 96
18 16 16 18 17 15 14 14 17 15 16 13 17 23 33 37 49 72 93 73 91 100 100 100 99 97 98 95 99 99 98 97 98 95 96 100 100 100
24 20 19 19 17 16 14 15 14 12 10 10 11 15 20 46 39 43 64 39 46 79 85 86 83 94 95 88 88 72 69 74 96 95 88 87 93 68
27 25 25 21 17 15 17 13 12 10 10 11 12 13 14 25 51 44 69 75 76 72 68 67 79 81 70 75 78 79 79 76 79 89 90 86 86 85
33 30 22 18 16 16 14 13 11 11 13 14 14 14 15 17 20 46 70 77 80 82 83 77 76 83 82 81 66 43 29 20 20 19 19 22 24 26
30 22 19 18 16 15 14 13 14 16 16 18 19 19 19 19 20 22 22 21 22 24 26 26 26 27 27 24 24 22 21 18 17 16 16 16 16 15
25 21 19 18 17 16 15 16 19 21 22 23 23 25 25 23 22 22 22 23 24 26 25 25 25 25 25 25 23 22 22 22 22 21 19 17 16 16
26 22 20 20 19 20 21 23 26 26 27 27 28 29 28 27 27 28 27 27 26 26 31 32 32 35 34 35 35 31 27 27 26 22 19 16 14 9
26 24 24 24 24 25 28 31 32 33 34 35 36 35 34 32 32 30 30 29 28 28 31 36 35 36 36 38 36 33 32 29 26 21 15 13 10 8
30 30 30 30 32 34 35 37 40 44 45 44 44 42 40 38 37 34 32 31 28 28 29 32 32 33 34 33 31 32 34 33 28 17 10 10 12 16
51 46 43 42 42 46 47 52 58 54 49 48 48 46 44 42 40 38 34 31 30 29 30 31 29 31 35 36 37 38 37 30 18 12 13 15 20 21
78 72 71 72 75 77 76 75 70 61 57 54 50 48 47 45 42 40 38 34 34 34 36 38 43 43 40 38 42 34 20 13 14 17 18 25 28 24
79 79 81 83 81 80 79 76 74 71 69 65 59 55 51 48 46 47 46 43 40 40 44 48 46 44 43 33 17 13 13 17 19 22 24 35 34 26
84 83 81 80 83 86 88 87 85 83 79 72 66 62 61 62 64 64 57 49 46 50 53 50 52 40 15 11 12 17 21 26 25 27 32 46 38 37
80 80 82 83 85 87 88 90 93 90 83 76 68 68 70 72 75 73 67 58 60 60 60 59 42 13 11 11 12 19 28 37 49 45 41 53 51 51
69 70 71 72 75 82 88 91 90 84 77 73 70 71 72 71 73 74 73 61 65 74 67 54 19 11 10 12 14 17 32 57 64 64 58 71 74 73
79 74 69 69 70 72 76 76 75 75 74 79 82 82 86 88 87 84 72 54 76 75 54 20 13 9 10 16 16 18 31 53 82 81 83 83 92 99
87 81 79 76 70 65 64 65 67 75 83 84 89 95 95 96 92 77 50 76 78 62 21 16 15 12 14 17 22 23 20 44 76 99 100 100 90 100
94 96 94 85 81 79 81 83 81 78 82 80 75 72 71 63 56 60 78 80 71 26 19 19 17 15 16 17 21 30 26 25 68 99 100 95 87 89
95 91 82 79 83 83 71 61 45 25 18 22 27 28 27 36 60 69 87 81 48 19 22 22 23 24 24 23 22 28 33 29 31 55 93 88 86 77
98 92 82 77 69 34 17 15 16 18 21 22 18 20 23 51 66 91 92 71 24 22 22 24 29 33 31 27 22 25 38 41 33 28 37 56 65 67
97 85 70 37 17 17 18 18 19 18 17 20 19 19 23 46 81 92 90 41 22 25 24 30 36 35 28 24 23 26 29 35 39 36 36 28 23 21

GFSNE_500_rhum_069.txt.gz
RH
13 13 16 16 16 15 15 15 16 14 14 14 13 14 14 11 9 10 17 27 53 62 82 100 100 53 60 76 65 93 97 98 99 98 97 95 92 100
15 18 19 20 20 19 18 18 18 16 14 13 12 11 10 9 8 9 14 36 61 58 88 95 100 89 89 95 100 97 94 97 100 99 98 96 90 95
20 21 22 24 27 25 23 23 18 16 14 13 11 10 10 10 10 10 13 20 32 34 68 77 90 100 98 99 99 98 96 100 99 100 96 97 98 82
26 24 27 27 32 28 26 21 17 14 14 12 11 11 12 12 11 11 12 24 35 38 42 56 69 96 100 95 98 99 100 99 85 90 100 100 99 87
28 26 30 35 33 31 21 18 16 15 14 12 12 14 13 13 14 14 13 15 16 26 55 64 68 73 66 72 82 84 82 82 79 76 72 76 75 82
31 35 35 35 30 23 20 17 16 16 14 14 16 17 16 18 19 19 18 18 19 20 20 21 21 26 38 51 60 68 70 73 71 63 51 49 45 48
41 40 35 31 27 23 19 18 18 17 16 18 20 22 23 24 24 24 23 23 24 25 26 26 24 24 26 26 25 25 25 25 24 23 21 20 19 19
40 37 36 32 27 23 21 21 20 21 23 26 27 28 29 30 31 30 29 28 28 28 27 26 27 26 28 30 30 30 31 31 31 31 30 28 26 26
42 39 36 31 26 25 25 25 25 28 30 33 34 35 39 40 39 38 38 36 34 33 32 29 29 29 32 32 32 32 33 33 34 33 32 31 30 28
46 44 42 38 32 30 32 34 35 36 40 41 44 50 47 45 43 42 41 39 38 37 36 33 30 28 28 28 29 33 34 35 36 36 35 34 33 33
59 61 62 62 61 57 54 54 54 56 59 65 68 65 56 52 49 46 45 44 41 40 38 36 33 31 30 29 30 30 31 35 38 38 36 36 36 34
65 66 65 64 67 72 77 82 81 80 74 71 71 69 66 65 62 57 53 47 44 44 44 44 41 38 38 38 38 39 40 37 35 38 37 29 20 16
52 53 59 64 67 74 78 78 78 78 80 81 80 81 80 75 70 63 58 53 52 52 56 56 52 47 44 43 44 48 48 47 39 21 12 11 12 14
52 50 54 60 68 73 74 75 74 74 75 81 86 85 83 78 71 60 56 56 57 58 62 62 64 59 54 53 66 62 55 32 13 11 11 12 14 18
54 52 58 61 60 64 68 68 66 69 71 71 74 77 76 70 65 64 67 68 67 67 70 69 71 66 50 66 68 49 22 12 10 10 11 12 14 21
65 66 66 69 74 70 64 60 56 52 49 53 55 59 66 70 70 73 75 80 86 86 85 84 60 48 71 62 46 16 14 13 15 13 12 14 15 25
76 78 80 84 82 77 73 69 64 62 64 70 72 71 72 76 61 31 24 38 59 66 48 36 41 69 64 36 17 17 15 15 15 16 17 17 18 26
74 86 89 91 89 84 78 72 63 63 70 74 72 53 22 14 15 18 20 23 28 32 45 50 69 58 50 19 19 20 18 17 17 19 20 20 26 54
89 93 96 97 97 88 79 71 64 59 61 45 15 14 17 19 16 18 21 19 27 49 67 86 80 64 22 20 24 22 25 26 25 22 21 22 24 77
100 100 100 100 98 90 82 72 65 50 18 16 19 20 20 18 16 16 17 19 23 46 89 85 74 36 20 23 28 34 33 36 27 23 24 23 24 40
100 100 100 100 98 93 78 64 31 17 18 19 19 20 20 20 20 19 16 18 23 61 94 84 45 23 26 25 33 40 35 27 22 22 22 24 30 28
100 100 98 98 96 90 68 23 17 18 18 21 22 22 24 26 24 24 20 21 52 84 90 54 26 27 25 28 34 46 34 23 21 20 18 16 25 40
98 97 99 95 89 73 21 17 18 18 21 24 26 24 22 20 22 23 22 42 88 95 72 27 30 27 28 32 68 83 38 22 19 26 40 22 17 18